This is the latest recevied weather packets stored in our database for station/object K1JO. If no packets are shown the sender has not sent any weather packets the latest 10 day(s).
| Time | Temp. | Humidity | Pressure | Rain* | Wind** | Luminosity | Snow |
|---|---|---|---|---|---|---|---|
| 1777851298 | 6.67° C | 96% | 998.6 hPa | 0 mm | - | 9 W/m² | - |
| 1777850994 | 6.67° C | 95% | 998.5 hPa | 0 mm | - | 13 W/m² | - |
| 1777850691 | 6.67° C | 95% | 998.5 hPa | 0 mm | - | 16 W/m² | - |
| 1777850389 | 7.22° C | 95% | 998.5 hPa | 0 mm | - | 20 W/m² | - |
| 1777850086 | 7.22° C | 93% | 998.4 hPa | 0 mm | - | 25 W/m² | - |
| 1777849783 | 7.22° C | 94% | 998.3 hPa | 0 mm | - | 30 W/m² | - |
| 1777849479 | 7.22° C | 93% | 998.2 hPa | 0 mm | - | 35 W/m² | - |
| 1777849177 | 7.78° C | 91% | 998.2 hPa | 0 mm | - | 42 W/m² | - |
| 1777848874 | 7.22° C | 91% | 998.1 hPa | 0 mm | - | 49 W/m² | - |
| 1777848569 | 7.22° C | 91% | 998.2 hPa | 0 mm | - | 56 W/m² | - |
| 1777848266 | 7.78° C | 91% | 998.2 hPa | 0 mm | - | 60 W/m² | - |
| 1777847964 | 7.78° C | 91% | 998.2 hPa | 0 mm | - | 64 W/m² | - |
| 1777847662 | 7.78° C | 92% | 998 hPa | 0 mm | - | 66 W/m² | - |
| 1777847356 | 7.78° C | 91% | 998.3 hPa | 0 mm | - | 69 W/m² | - |
| 1777847055 | 7.78° C | 91% | 998 hPa | 0 mm | - | 80 W/m² | - |
| 1777846753 | 7.78° C | 90% | 998.1 hPa | 0 mm | - | 92 W/m² | - |
| 1777846451 | 7.78° C | 89% | 998.1 hPa | 0 mm | - | 91 W/m² | - |
| 1777846147 | 7.78° C | 90% | 997.9 hPa | 0 mm | - | 90 W/m² | - |
| 1777845844 | 7.78° C | 92% | 997.8 hPa | 0 mm | - | 95 W/m² | - |
| 1777845541 | 7.78° C | 91% | 997.7 hPa | 0 mm | - | 108 W/m² | - |
| 1777845238 | 7.78° C | 91% | 997.8 hPa | 0 mm | - | 124 W/m² | - |
| 1777844935 | 7.78° C | 93% | 997.8 hPa | 0 mm | - | 142 W/m² | - |
| 1777844633 | 7.78° C | 94% | 997.8 hPa | 0 mm | - | 142 W/m² | - |
| 1777844330 | 7.78° C | 93% | 998.1 hPa | 0 mm | - | 151 W/m² | - |
| 1777844028 | 7.78° C | 94% | 997.9 hPa | 0 mm | - | 159 W/m² | - |
* Rain latest hour (hover to see other rain measurements)
** Current wind speed in m/s (hover to see current wind gust speed)